Regional Weather Roundup
Issued by NWS

Home | Current Version | Previous Version | Graphics & Text | Print | Product List | Glossary On
Versions: 1 2 3 4 5 6 7 8 9 10 11 12 13 14 15 16 17 18 19 20 21 22 23 24 25 26 27 28 29 30 31 32 33 34 35 36 37 38 39 40 41 42 43 44 45 46 47 48 49 50
000
ASUS43 KIND 141409
RWRIN

WEATHER ROUNDUP FOR INDIANA
NATIONAL WEATHER SERVICE INDIANAPOLIS IN
900 AM EST THU DEC 14 2017

NOTE: "FAIR" INDICATES FEW OR NO CLOUDS BELOW 12,000 FEET WITH NO
SIGNIFICANT WEATHER AND/OR OBSTRUCTIONS TO VISIBILITY.

* - STATION DOES NOT REPORT WEATHER SUCH AS PRECIPITATION OR FOG.

+ - STATION NOT QUALITY CONTROLLED BY THE NATIONAL WEATHER SERVICE.
    USE DATA WITH CAUTION...ESPECIALLY DEWPOINT AND RELATIVE
    HUMIDITY OBSERVATIONS.

INZ001>003-010>013-019-020-141500-
NORTHWEST INDIANA

CITY           SKY/WX    TMP DP  RH WIND       PRES   REMARKS
GARY /AIRPORT/ MOCLDY    23  14  68 W9        30.03R WCI  13
KNOX *+        CLOUDY    18  10  73 CALM      30.01R
LA PORTE +     CLOUDY    16   9  75 CALM      30.01R
MICHIGAN CITY+ FLURRIES  19  10  68 CALM      30.02R
MONTICELLO +   CLEAR     20  11  70 E5        30.00R WCI  13
RENSSELAER +   FLURRIES  25  14  63 E6        30.02R WCI  18
VALPARAISO     CLOUDY    21  11  65 E6        30.02R WCI  13

$$

LMZ046-743>745-141500-
SOUTHERN LAKE MICHIGAN

STATION/POSITION TIME  TEMP    WIND        PRES    WAVE
                       AIR SEA DIR/SP/G            HT
                 (UTC) (F)     (DEG/KT/KT) (MB)    (FT)
BURNS HARBOR     1400   24     170/  6/ 15 1016.6
MICHIGAN CITY    1340   20     150/  7/  9   N/A

$$

INZ004-005-014>016-021>024-141500-
NORTH CENTRAL INDIANA

CITY           SKY/WX    TMP DP  RH WIND       PRES   REMARKS
ELKHART        CLOUDY     5   1  85 CALM      30.00R
GOSHEN         CLOUDY     7   5  91 SW5       30.00R WCI  -2
LOGANSPORT +   CLEAR     18  12  79 NE6       30.02R WCI   9
PERU/GRISSOM   CLEAR     16  14  91 NE3       30.00R
ROCHESTER +    CLOUDY    18  12  79 NE3       30.01R
SOUTH BEND     CLOUDY    15  11  83 E3        30.01R
WARSAW +       CLOUDY    10   9  92 CALM      30.00R

$$

INZ006>009-017-018-025>027-141500-
NORTHEAST INDIANA

CITY           SKY/WX    TMP DP  RH WIND       PRES   REMARKS
AUBURN +       CLOUDY    12   9  85 NW5       29.99R WCI   4
FORT WAYNE     CLOUDY    15  10  80 NW5       30.00R WCI   8
HUNTINGTON +   CLOUDY    17  12  81 N3        30.00R
KENDALLVILLE + CLOUDY     9   7  91 CALM      29.99R

$$

INZ028-029-035-036-043>045-051>053-141500-
WEST CENTRAL INDIANA

CITY           SKY/WX    TMP DP  RH WIND       PRES   REMARKS
CRAWFORDSVL +  CLOUDY    25  19  78 NE8       29.96R WCI  16
GREENCASTLE +  CLOUDY    28  19  69 NE9       29.99R WCI  20
LAFAYETTE      CLOUDY    23  13  65 NE7       30.01R WCI  15
TERRE HAUTE    CLOUDY    29  19  66 N7        30.00R WCI  22

$$

INZ030>032-037>040-046>048-054>057-064-065-141500-
CENTRAL INDIANA

CITY           SKY/WX    TMP DP  RH WIND       PRES   REMARKS
COLUMBUS       CLEAR     25  10  54 N12       29.99R WCI  14
FRANKFORT +    CLOUDY    24  16  71 NE5       30.00S WCI  18
GREENWOOD *+   CLOUDY    28  17  61 N10       29.99R WCI  19
INDIANAPOLIS   CLOUDY    25  13  60 N9        29.99R WCI  15
-EAGLE CREEK   CLOUDY    24  13  62 N6        29.99R WCI  17
KOKOMO +       CLEAR     18  14  84 N5        30.01  WCI  11
MARION +       CLEAR     18  15  88 NW3       30.00R
MT COMFORT *+  PTCLDY    19  18  93 N7        29.98R WCI  10
SHELBYVILLE    PTCLDY    24  15  68 N9        29.99R WCI  14
ZIONSVILLE +   CLOUDY    19  14  82 N5        29.99R WCI  12

$$

INZ033-034-041-042-049-050-058-059-141500-
EAST CENTRAL INDIANA

CITY           SKY/WX    TMP DP  RH WIND       PRES   REMARKS
MUNCIE         CLOUDY    21  15  78 N3        29.99R
RICHMOND +     CLOUDY    21  18  86 N9        29.97R WCI  11

$$

INZ060-061-067>069-081>083-085>088-141500-
SOUTHWEST INDIANA

CITY           SKY/WX    TMP DP  RH WIND       PRES   REMARKS
EVANSVILLE     PTCLDY    30  21  69 N8        30.02R WCI  22
HUNTINGBURG +  CLOUDY    28  22  78 NW5       30.01R WCI  23
WASHINGTON +   CLOUDY    29  20  68 W3        30.00R

$$

INZ062-063-066-070>080-084-089>092-141500-
SOUTH CENTRAL AND SOUTHEAST INDIANA

CITY           SKY/WX    TMP DP  RH WIND       PRES   REMARKS
BEDFORD +      CLOUDY    30  19  64 NE5       29.97  WCI  25
BLOOMINGTON    CLOUDY    30  18  60 N9        29.97R WCI  22
MADISON *+     CLOUDY    28  14  54 N5        30.00R WCI  23
NORTH VERNON + MOCLDY    23  14  68 N5        29.99R WCI  17
SEYMOUR +      CLOUDY    30  16  55 N15       29.99R WCI  19

$$





USA.gov is the U.S. government's official web portal to all federal, state and local government web resources and services.